Tracking 17147 objects as of 5-July-2015
HD Live streaming from Space Station

IMS-1

Track IMS-1 now!
10-day predictions
IMS-1 is classified as:


NORAD ID: 32786
Int'l Code: 2008-021D
Perigee: 615.3 km
Apogee: 634.3 km
Inclination: 97.7 °
Period: 97.1 minutes
Semi major axis: 6995 km
RCS: 0.5386 m2 (medium)
Launch date: April 28, 2008
Source: India (IND)

IMS-1 is a small spacecraft featuring two medium- and low-resolution cameras to gather photos of locations around the world. Data from the 183-pound [83-kg] satellite's technology demonstration systems and cameras will be made available to developing nations.
Your satellite tracking list
Your tracking list is empty





NASA's NSSDC Master Catalog

Two Line Element Set (TLE):
1 32786U 08021D   15185.74404310  .00000697  00000-0  90374-4 0  9999
2 32786 097.6543 220.3028 0013528 044.3603 315.8689 14.83701637388232

Source of the keplerian elements: AFSPC

N2YO: 221